AirNav   Air Wisconsin Up To $57,000 Bonus
 
 488 users online  

KNRS Imperial Beach Naval Outlying Field (Ream Field)
Imperial Beach, California, USA

GOING TO IMPERIAL BEACH?


FAA INFORMATION EFFECTIVE 09 SEPTEMBER 2021

Location

FAA Identifier: NRS
Lat/Long: 32-33-58.1638N 117-06-48.6837W
32-33.969397N 117-06.811395W
32.5661566,-117.1135233
(estimated)
Elevation: 23.6 ft. / 7.2 m (surveyed)
Variation: 11E (2020)
From city: 1 mile S of IMPERIAL BEACH, CA
Time zone: UTC -7 (UTC -8 during Standard Time)
Zip code: 91932

Airport Operations

Airport use: Private use. Permission required prior to landing
Activation date: 02/1944
Control tower: yes
ARTCC: LOS ANGELES CENTER
FSS: SAN DIEGO FLIGHT SERVICE STATION
FSS-SAN DIEGO SAN-NOTAM NRS
NOTAMs facility: SAN (NOTAM-D service available)
Attendance: 
OPR 1600-0630Z MON-THU (1500-0600Z DT) AND 1600-0200Z++ FRI. CLSD FR 0200Z++ DAY PRIOR TIL 1600Z++ DAY FLW GOVT HOL; EXC PRE-COORD FLT OF OPR NECESSITY. CTC NOLF ATC DSN 577-9414/9415 FOR OPR INQUIRIES.
Segmented circle: no
Lights: AVBL ONLY DURING HRS OF OPERATION.
Beacon: white-white-green (lighted military airport)
Operates sunset to sunrise.

Airport Communications

ATIS: 276.2
WX ASOS: PHONE 619-437-9890
IMPERIAL BEACH GROUND: 285.575 [1600-0630Z MON-THU (1500-0600Z DT) AND 1600-0200Z++ FRI. CLSD FR 0200Z++ DAY PRIOR TIL 1600Z++ DAY FLW GOVT HOL.]
IMPERIAL BEACH TOWER: 120.65 239.25 [1600-0630Z MON-THU (1500-0600Z DT) AND 1600-0200Z++ FRI. CLSD FR 0200Z++ DAY PRIOR TIL 1600Z++ DAY FLW GOVT HOL.]
SOCAL APPROACH: 125.15
SOCAL DEPARTURE: 125.15
CLASS B: 125.15 ;110-224 SAN 17,000 FT& BLW
EMERG: 243.0
RADAR: 318.8
WX ASOS at SDM (7 nm E): 132.35 (619-661-8297)
WX ASOS at SAN (11 nm N): PHONE 619-296-8934
WX ASOS at MYF (15 nm N): 126.9 (858-576-4337)
WX AWOS-3P at SEE (17 nm NE): 125.45 (619-449-1228)
  • ATCT/GCA/ATIS OPR PUBLISHED HRS EXC PRE-COORD FLT OF OPR NECESSITY.
  • ILS/RADAR - RADAR - SEE TERMINAL FLIP FOR RADAR MINIMA.

Nearby radio navigation aids

VOR radial/distance  VOR name  Freq  Var
PGYr235/7.3POGGI VORTAC116.4514E
TIJr269/8.3TIJUANA VOR/DME116.5012E
MZBr141/14.1MISSION BAY VORTAC117.8015E

Airport Services

Runway Information

Runway 8/26

Dimensions: 2240 x 151 ft. / 683 x 46 m
Surface: concrete
Weight bearing capacity: 
PCN 6 /R/C/W/T
RUNWAY 8  RUNWAY 26
Latitude: 32-34.018072N32-33.921433N
Longitude: 117-06.827898W117-06.406738W
Elevation: 23.5 ft.21.2 ft.
Traffic pattern: leftleft
Touchdown point: yes, no lightsyes, no lights

Runway 9/27

Dimensions: 4997 x 336 ft. / 1523 x 102 m
Surface: PEM
Weight bearing capacity: 
PCN 8 /F/A/W/T
Runway edge lights: high intensity
RUNWAY 9  RUNWAY 27
Latitude: 32-34.076683N32-33.861790N
Longitude: 117-07.368155W117-06.428677W
Elevation: 8.2 ft.19.8 ft.
Traffic pattern: leftleft
Touchdown point: yes, no lightsyes, no lights

Airport Ownership and Management from official FAA records

Ownership: U.S. Navy
Owner: US NAVY
OCEANOGRAPHIC OFC - CODE 3142
WASHINGTON, DC 20373

Additional Remarks

RSTD - OFFL BUS ONLY - PPR F/W AND NON-TENANT ACFT, CTC NASNI ODO DSN 735-8233/8234, C619-545-8233/8234. NORTH ISLAND TENANT ACFT AND COAST GUARD HAVE PRIORITY FOR LCL PAT OPR.
CAUTION: EXTV COPTER TRNG.
MISC: RWY 08-26 AVBL FOR DAY AND NGT COPTER USE ONLY (NGT AND SVFR USE AT PILOTS OWN RISK).
FUEL: J5 (AVAILABLE 1100-2100 MON-THU; 1000-1800 FRI).
FOR CD WHEN ATCT CLSD CTC SOCAL APCH AT 800-448-3724.

Instrument Procedures

NOTE: All procedures below are presented as PDF files. If you need a reader for these files, you should download the free Adobe Reader.

NOT FOR NAVIGATION. Please procure official charts for flight.
FAA instrument procedures published for use from 09 September 2021 at 0901Z to 07 October 2021 at 0900Z.

 
IAPs - Instrument Approach Procedures
COPTER TACAN RWY 27   download (117KB)
NOTE: Special Take-Off Minimums/Departure Procedures apply   download (174KB)

Other nearby airports with instrument procedures:

KSDM - Brown Field Municipal Airport (7 nm E)
KNZY - North Island Naval Air Station (Halsey Field) (9 nm NW)
KSAN - San Diego International Airport (11 nm N)
KMYF - Montgomery-Gibbs Executive Airport (15 nm N)
KSEE - Gillespie Field Airport (17 nm NE)
KNKX - Miramar MCAS (Joe Foss Field) Airport (18 nm N)
 
Loc | Ops | Rwys | IFR | FBO | Links
Com | Nav | Svcs | Stats | Notes
Area around KNRS (Imperial Beach Naval Outlying Field (Ream Field))
 
Road maps at: MapQuest Bing Google
 
Aerial photo
WARNING: Photo may not be current or correct
Aerial photo of KNRS (Imperial Beach Naval Outlying Field (Ream Field))
Photo taken 02-Feb-2016
looking south.

Do you have a better or more recent aerial photo of Imperial Beach Naval Outlying Field (Ream Field) that you would like to share? If so, please send us your photo.

 
Sectional chart

 
Airport distance calculator
Flying to Imperial Beach Naval Outlying Field (Ream Field)? Find the distance to fly.

From to KNRS

Sunrise and sunset
Times for 18-Sep-2021
 Local
(UTC-7)
 Zulu
(UTC)
Morning civil twilight06:1013:10
Sunrise06:3513:35
Sunset18:5001:50
Evening civil twilight19:1502:15

Current date and time
Zulu (UTC)  18-Sep-2021 07:05:42
Local (UTC-7)  18-Sep-2021 00:05:42
 
METAR
KNRS 180656Z AUTO 31006KT 10SM CLR A3004 RMK AO2 SLP173 $
KSDM 
6nm E 
180653Z AUTO 00000KT 10SM CLR 19/14 A3003 RMK AO2 SLP166 T01890139
MMTJ 
8nm E 
180643Z 31004KT 6SM SCT200 18/15 A3006 RMK 8/001 HZY
KNZY 
10nm NW 
180652Z AUTO 31006KT 10SM CLR 20/14 A3002 RMK AO2 SLP166 T02000139
KSAN 
11nm N 
180651Z 34003KT 10SM BKN120 21/14 A3004 RMK AO2 SLP173 T02060144
KMYF 
15nm N 
180653Z AUTO 34004KT 10SM CLR 19/14 A3004 RMK AO2 SLP166 T01890139
KSEE 
17nm NE 
180655Z AUTO 29004KT 10SM CLR 18/14 A3002 RMK AO2
KNKX 
18nm N 
180555Z 34005KT 10SM CLR 17/14 A3003 RMK AO2 SLP165 T01720139 10211 20172 51009
TAF
MMTJ 
8nm E 
180330Z 1806/1912 26005KT 6SM HZ SCT200 TX23/1819Z TN17/1812Z TEMPO 1810/1814 BKN010 FM181800 25010KT P6SM SKC FM190300 24005KT P6SM SKC
KNZY 
10nm NW 
1715/1815 VRB06KT 9999 BKN019 QNH2993INS FM171700 28006KT 9999 SCT020 SCT140 QNH2995INS FM172000 28010KT 9999 FEW025 SCT140 QNH2994INS FM180400 VRB06KT 9999 BKN020 QNH2993INS T22/1722Z T17/1811Z FS30160
KSAN 
11nm N 
180520Z 1806/1912 VRB04KT P6SM BKN018 FM181800 28005KT P6SM SCT025 SCT150 FM182000 29010KT P6SM FEW025 SCT150 FM190300 VRB04KT P6SM SCT018 FM190500 VRB04KT P6SM BKN018
KNKX 
18nm N 
1715/1815 VRB05KT 9999 SCT015 QNH2995INS TEMPO 1715/1717 OVC015 FM171930 27008KT 9999 SKC QNH2994INS BECMG 1803/1805 VRB05KT 9999 BKN015 QNH2999INS T23/1720Z T16/1810Z
NOTAMs
Click for the latest NOTAMs
NOTAMs are issued by the DoD/FAA and will open in a separate window not controlled by AirNav.

 

 
 

Would you like to see your business listed on this page?

 If your business provides an interesting product or service to pilots, flight crews, aircraft, or users of the Imperial Beach Naval Outlying Field (Ream Field), you should consider listing it here.  To start the listing process, click on the button below
 
Add a business
 

Other Pages about Imperial Beach Naval Outlying Field (Ream Field)

Update a link
 
Copyright © AirNav, LLC. All rights reserved. Privacy Policy  Contact